TimeEDT,TemperatureF,Dew PointF,Humidity,Sea Level PressureIn,VisibilityMPH,Wind Direction,Wind SpeedMPH,Gust SpeedMPH,PrecipitationIn,Events,Conditions,WindDirDegrees,DateUTC
12:52 AM,57.9,55.0,90,29.82,8.0,North,10.4,23.0,0.02,Rain,Light Rain,360,2011-10-05 04:52:00
1:10 AM,57.2,55.4,94,29.82,6.0,Variable,6.9,-,0.00,Rain,Light Rain,0,2011-10-05 05:10:00
1:41 AM,57.2,53.6,88,29.83,10.0,North,9.2,23.0,0.02,,Overcast,360,2011-10-05 05:41:00
1:52 AM,57.0,54.0,89,29.83,10.0,Variable,6.9,18.4,0.02,,Overcast,0,2011-10-05 05:52:00
2:52 AM,57.0,52.0,83,29.83,10.0,NNW,10.4,24.2,N/A,,Overcast,340,2011-10-05 06:52:00
3:52 AM,57.9,51.1,78,29.84,10.0,Variable,6.9,21.9,N/A,,Overcast,0,2011-10-05 07:52:00
4:52 AM,57.9,50.0,75,29.87,10.0,North,11.5,20.7,N/A,,Overcast,350,2011-10-05 08:52:00
5:22 AM,57.2,50.0,77,29.87,10.0,North,8.1,19.6,N/A,,Overcast,350,2011-10-05 09:22:00
6:01 AM,57.2,50.0,77,29.88,10.0,NNW,9.2,20.7,N/A,,Overcast,340,2011-10-05 10:01:00
6:52 AM,57.9,50.0,75,29.90,10.0,NNW,8.1,17.3,N/A,,Overcast,340,2011-10-05 10:52:00
7:52 AM,57.0,53.1,87,29.91,3.0,Variable,5.8,-,0.00,Rain,Light Rain,0,2011-10-05 11:52:00
8:13 AM,57.2,53.6,88,29.92,7.0,Variable,4.6,-,0.00,,Overcast,0,2011-10-05 12:13:00
8:21 AM,57.2,53.6,88,29.92,6.0,Variable,4.6,-,0.00,Rain,Light Rain,0,2011-10-05 12:21:00
8:50 AM,57.2,53.6,88,29.93,2.0,North,3.5,-,0.02,Rain,Light Rain,350,2011-10-05 12:50:00
8:52 AM,57.0,54.0,89,29.94,2.5,Variable,4.6,-,0.02,Rain,Light Rain,0,2011-10-05 12:52:00
9:00 AM,57.2,53.6,88,29.94,4.0,North,6.9,-,0.01,Rain,Light Rain,350,2011-10-05 13:00:00
9:14 AM,57.2,53.6,88,29.94,10.0,North,5.8,-,0.01,Rain,Light Rain,350,2011-10-05 13:14:00
9:52 AM,59.0,54.0,83,29.94,10.0,Variable,5.8,-,0.01,,Overcast,0,2011-10-05 13:52:00
10:07 AM,59.0,51.8,77,29.94,10.0,NNW,5.8,-,N/A,,Overcast,330,2011-10-05 14:07:00
10:38 AM,60.8,51.8,72,29.93,10.0,NNW,8.1,20.7,N/A,,Mostly Cloudy,330,2011-10-05 14:38:00
10:49 AM,60.8,51.8,72,29.93,10.0,NW,8.1,-,N/A,,Mostly Cloudy,320,2011-10-05 14:49:00
10:52 AM,61.0,51.1,70,29.94,10.0,NNW,9.2,18.4,N/A,,Mostly Cloudy,330,2011-10-05 14:52:00
11:52 AM,62.1,50.0,65,29.95,10.0,NW,11.5,23.0,N/A,,Mostly Cloudy,320,2011-10-05 15:52:00
12:18 PM,62.6,48.2,59,29.95,10.0,NW,10.4,19.6,N/A,,Mostly Cloudy,320,2011-10-05 16:18:00
12:25 PM,62.6,48.2,59,29.95,10.0,NW,8.1,19.6,N/A,,Mostly Cloudy,310,2011-10-05 16:25:00
12:37 PM,62.6,48.2,59,29.95,10.0,NNW,8.1,18.4,N/A,,Scattered Clouds,330,2011-10-05 16:37:00
12:52 PM,63.0,48.0,58,29.95,10.0,Variable,6.9,18.4,N/A,,Mostly Cloudy,0,2011-10-05 16:52:00
1:52 PM,63.0,48.0,58,29.95,10.0,Variable,5.8,17.3,N/A,,Mostly Cloudy,0,2011-10-05 17:52:00
2:52 PM,63.0,46.9,56,29.95,10.0,North,8.1,-,N/A,,Scattered Clouds,360,2011-10-05 18:52:00
7:52 PM,55.9,37.9,51,30.10,10.0,North,8.1,25.3,N/A,,Clear,10,2011-10-05 23:52:00
8:52 PM,55.0,35.1,47,30.14,10.0,North,9.2,24.2,N/A,,Clear,10,2011-10-06 00:52:00
9:52 PM,55.0,34.0,45,30.17,10.0,North,9.2,23.0,N/A,,Partly Cloudy,360,2011-10-06 01:52:00
10:52 PM,54.0,32.0,43,30.19,10.0,North,8.1,-,N/A,,Scattered Clouds,350,2011-10-06 02:52:00
11:52 PM,53.1,30.9,43,30.20,10.0,Variable,5.8,-,N/A,,Partly Cloudy,0,2011-10-06 03:52:00